Location: Darmstadt
(49.8706°N, 8.6494°E)
Time: 06:50:34
(UTC+01:00)

Cosmos 1812 Rocket - Pass Details

Date: 31 October 2020
Orbit: 605 x 632 km, 82.5° (Epoch: 03 December)

Event Time Altitude Azimuth Distance (km) Brightness Sun altitude
Rises 18:55:41 0° 185° (S) 2,885 7.1 -18.5°
Reaches altitude 10° 18:57:54 10° 185° (S) 1,980 6.2 -18.8°
Maximum altitude 19:02:17 81° 99° (E) 629 3.4 -19.5°
Drops below altitude 10° 19:06:41 10° 12° (NNE) 1,980 6.0 -20.2°
Sets 19:08:54 0° 11° (NNE) 2,886 6.9 -20.6°
